Location: Drignac
(45.1667°N, 2.0333°E)
Time: 11:01:48
(UTC+00:00)

STARLINK-1109 - Pass Details

Date: 29 March 2020
Orbit: 548 x 551 km, 53.0° (Epoch: 26 May)

Event Time Altitude Azimuth Distance (km) Brightness Sun altitude
Rises 19:56:50 0° 300° (WNW) 2,727 8.9 -17.8°
Reaches altitude 10° 19:59:06 10° 297° (WNW) 1,830 7.6 -18.2°
Maximum altitude 20:03:11 57° 218° (SW) 649 4.0 -18.8°
Enters shadow 20:04:27 39° 161° (SSE) 837 4.2 -19.0°
